Time,TemperatureF,DewpointF,PressureIn,WindDirection,WindDirectionDegrees,WindSpeedMPH,WindSpeedGustMPH,Humidity,HourlyPrecipIn,Conditions,Clouds,dailyrainin,SolarRadiationWatts/m^2,SoftwareType,DateUTC
2014-11-21 00:02:00,50.0,48.0,29.36,West,276,1.0,-999.0,93,0.00,,,0.05,-2.000000,,2014-11-21 08:02:00,
2014-11-21 00:11:00,50.0,48.0,29.36,West,276,1.0,-999.0,93,0.00,,,0.05,-2.000000,,2014-11-21 08:11:00,
2014-11-21 00:22:00,50.0,48.0,29.36,West,276,1.0,-999.0,93,0.00,,,0.05,-2.000000,,2014-11-21 08:22:00,
2014-11-21 00:30:00,49.0,47.0,29.36,North,-999,0.0,-999.0,93,0.00,,,0.06,-2.000000,,2014-11-21 08:30:00,
2014-11-21 00:52:00,49.0,47.0,29.36,North,-999,0.0,-999.0,93,0.00,,,0.06,-2.000000,,2014-11-21 08:52:00,
2014-11-21 01:02:00,49.0,47.0,29.36,North,-999,0.0,-999.0,93,0.00,,,0.06,-2.000000,,2014-11-21 09:02:00,
2014-11-21 01:12:00,49.0,47.0,29.36,North,-999,0.0,-999.0,93,0.00,,,0.06,-2.000000,,2014-11-21 09:12:00,
2014-11-21 01:22:00,49.0,47.0,29.36,North,-999,0.0,-999.0,93,0.00,,,0.06,-2.000000,,2014-11-21 09:22:00,
2014-11-21 01:30:00,47.0,45.0,29.35,North,-999,0.0,-999.0,93,0.00,,,0.06,-2.000000,,2014-11-21 09:30:00,
2014-11-21 01:53:00,47.0,45.0,29.35,North,-999,0.0,-999.0,93,0.00,,,0.06,-2.000000,,2014-11-21 09:53:00,
2014-11-21 02:03:00,47.0,45.0,29.35,North,-999,0.0,-999.0,93,0.00,,,0.06,-2.000000,,2014-11-21 10:03:00,
2014-11-21 02:12:00,47.0,45.0,29.35,North,-999,0.0,-999.0,93,0.00,,,0.06,-2.000000,,2014-11-21 10:12:00,
2014-11-21 02:22:00,47.0,45.0,29.35,North,-999,0.0,-999.0,93,0.00,,,0.06,-2.000000,,2014-11-21 10:22:00,
2014-11-21 02:30:00,46.0,44.0,29.36,NNW,334,1.0,-999.0,94,0.00,,,0.06,-3.000000,,2014-11-21 10:30:00,
2014-11-21 02:53:00,46.0,44.0,29.36,NNW,334,1.0,-999.0,94,0.00,,,0.06,-3.000000,,2014-11-21 10:53:00,
2014-11-21 03:03:00,46.0,44.0,29.36,NNW,334,1.0,-999.0,94,0.00,,,0.06,-3.000000,,2014-11-21 11:03:00,
2014-11-21 03:12:00,46.0,44.0,29.36,NNW,334,1.0,-999.0,94,0.00,,,0.06,-3.000000,,2014-11-21 11:12:00,
2014-11-21 03:22:00,46.0,44.0,29.36,NNW,334,1.0,-999.0,94,0.00,,,0.06,-3.000000,,2014-11-21 11:22:00,
2014-11-21 03:30:00,46.0,44.0,29.36,North,358,2.0,-999.0,94,0.00,,,0.06,-2.000000,,2014-11-21 11:30:00,
2014-11-21 03:53:00,46.0,44.0,29.36,North,358,2.0,-999.0,94,0.00,,,0.06,-2.000000,,2014-11-21 11:53:00,
2014-11-21 04:03:00,46.0,44.0,29.36,North,358,2.0,-999.0,94,0.00,,,0.06,-2.000000,,2014-11-21 12:03:00,
2014-11-21 04:12:00,46.0,44.0,29.36,North,358,2.0,-999.0,94,0.00,,,0.06,-2.000000,,2014-11-21 12:12:00,
2014-11-21 04:22:00,46.0,44.0,29.36,North,358,2.0,-999.0,94,0.00,,,0.06,-2.000000,,2014-11-21 12:22:00,
2014-11-21 04:30:00,44.0,42.0,29.36,NNW,343,1.0,-999.0,94,0.00,,,0.06,-2.000000,,2014-11-21 12:30:00,
2014-11-21 04:53:00,44.0,42.0,29.36,NNW,343,1.0,-999.0,94,0.00,,,0.06,-2.000000,,2014-11-21 12:53:00,
2014-11-21 05:02:00,44.0,42.0,29.36,NNW,343,1.0,-999.0,94,0.00,,,0.06,-2.000000,,2014-11-21 13:02:00,
2014-11-21 05:12:00,44.0,42.0,29.36,NNW,343,1.0,-999.0,94,0.00,,,0.06,-2.000000,,2014-11-21 13:12:00,
2014-11-21 05:22:00,44.0,42.0,29.36,NNW,343,1.0,-999.0,94,0.00,,,0.06,-2.000000,,2014-11-21 13:22:00,
2014-11-21 05:30:00,43.0,41.0,29.38,North,-999,0.0,-999.0,94,0.00,,,0.06,-2.000000,,2014-11-21 13:30:00,
2014-11-21 05:52:00,43.0,41.0,29.38,North,-999,0.0,-999.0,94,0.00,,,0.06,-2.000000,,2014-11-21 13:52:00,
2014-11-21 06:02:00,43.0,41.0,29.38,North,-999,0.0,-999.0,94,0.00,,,0.06,-2.000000,,2014-11-21 14:02:00,
2014-11-21 06:11:00,43.0,41.0,29.38,North,-999,0.0,-999.0,94,0.00,,,0.06,-2.000000,,2014-11-21 14:11:00,
2014-11-21 06:22:00,43.0,41.0,29.38,North,-999,0.0,-999.0,94,0.00,,,0.06,-2.000000,,2014-11-21 14:22:00,
2014-11-21 06:30:00,43.0,42.0,29.39,NNW,347,1.0,-999.0,94,0.00,,,0.06,-2.000000,,2014-11-21 14:30:00,
2014-11-21 06:52:00,43.0,42.0,29.39,NNW,347,1.0,-999.0,94,0.00,,,0.06,-2.000000,,2014-11-21 14:52:00,
2014-11-21 07:02:00,43.0,42.0,29.39,NNW,347,1.0,-999.0,94,0.00,,,0.06,-2.000000,,2014-11-21 15:02:00,
2014-11-21 07:12:00,43.0,42.0,29.39,NNW,347,1.0,-999.0,94,0.00,,,0.06,-2.000000,,2014-11-21 15:12:00,
2014-11-21 07:22:00,43.0,42.0,29.39,NNW,347,1.0,-999.0,94,0.00,,,0.06,-2.000000,,2014-11-21 15:22:00,
2014-11-21 07:30:00,43.0,41.0,29.41,North,350,3.0,-999.0,95,0.00,,,0.06,39.000000,,2014-11-21 15:30:00,
2014-11-21 07:53:00,43.0,41.0,29.41,North,350,3.0,-999.0,95,0.00,,,0.06,39.000000,,2014-11-21 15:53:00,
2014-11-21 08:03:00,43.0,41.0,29.41,North,350,3.0,-999.0,95,0.00,,,0.06,39.000000,,2014-11-21 16:03:00,
2014-11-21 08:13:00,43.0,41.0,29.41,North,350,3.0,-999.0,95,0.00,,,0.06,39.000000,,2014-11-21 16:13:00,
2014-11-21 08:24:00,43.0,41.0,29.41,North,350,3.0,-999.0,95,0.00,,,0.06,39.000000,,2014-11-21 16:24:00,
2014-11-21 08:30:00,45.0,44.0,29.44,NNE,25,1.0,-999.0,94,0.00,,,0.06,125.000000,,2014-11-21 16:30:00,
2014-11-21 08:53:00,45.0,44.0,29.44,NNE,25,1.0,-999.0,94,0.00,,,0.06,125.000000,,2014-11-21 16:53:00,
2014-11-21 09:03:00,45.0,44.0,29.44,NNE,25,1.0,-999.0,94,0.00,,,0.06,125.000000,,2014-11-21 17:03:00,
2014-11-21 09:12:00,45.0,44.0,29.44,NNE,25,1.0,-999.0,94,0.00,,,0.06,125.000000,,2014-11-21 17:12:00,
2014-11-21 09:22:00,45.0,44.0,29.44,NNE,25,1.0,-999.0,94,0.00,,,0.06,125.000000,,2014-11-21 17:22:00,
2014-11-21 09:53:00,49.0,47.0,29.45,NNW,329,1.0,-999.0,93,0.00,,,0.06,174.000000,,2014-11-21 17:53:00,
2014-11-21 10:03:00,49.0,47.0,29.45,NNW,329,1.0,-999.0,93,0.00,,,0.06,174.000000,,2014-11-21 18:03:00,
2014-11-21 10:13:00,49.0,47.0,29.45,NNW,329,1.0,-999.0,93,0.00,,,0.06,174.000000,,2014-11-21 18:13:00,